Weather History for Centralia, IL

Change the Weather History Date:

Monday, April 8, 2013

  Actual Average (KSLO) Record (KSLO)
Temperature  
Mean Temperature 69 °F -  
Max Temperature 76 °F 63 °F 85 °F (1965)
Min Temperature 62 °F 42 °F 22 °F (1972)
Cooling Degree Days 4    
Growing Degree Days 19 (Base 50)    
Moisture  
Dew Point 58 °F    
Average Humidity 67    
Maximum Humidity 77    
Minimum Humidity 56    
Precipitation  
Precipitation 0.02 in - - ()
Sea Level Pressure  
Sea Level Pressure 29.85 in    
Wind  
Wind Speed 14 mph (South)    
Max Wind Speed 21 mph    
Max Gust Speed 26 mph    
Visibility 10 miles    
Events      
Averages and records for this station are not official NWS values.
T = Trace of Precipitation, MM = Missing Value Source: NWS Daily Summary

Daily Weather History Graph

Daily Weather History Graph

Search for Another Location

Airport:

Trip Planner

Search our weather history database for the weather conditions in past years. The results will help you decide how hot, cold, wet, or windy it might be!

Date:

Astronomy

Apr. 08, 2013 Rise Set
Actual Time 6:30 AM CDT 7:26 PM CDT
Civil Twilight 6:03 AM CDT 7:53 PM CDT
Nautical Twilight 5:31 AM CDT 8:25 PM CDT
Astronomical Twilight 4:57 AM CDT 8:59 PM CDT
Moon 5:19 AM CDT (4/8) 6:01 PM CDT (4/8)
Length of Visible Light 13h 50m
Length of Day
12h 56m
Waning Crescent, 3% of the Moon is Illuminated
Apr 8
Waning Crescent
Apr 10
New
Apr 18
First Quarter
Apr 25
Full
May 2
Last Quarter

Hourly Weather History & Observations

Time (CDT) Temp. Dew Point Humidity Pressure Visibility Wind Dir Wind Speed Gust Speed Precip Events Conditions
12:15 AM 65.3 °F 57.2 °F 75% 29.90 in 10.0 mi South 12.7 mph - N/A   Clear
12:35 AM 65.1 °F 57.2 °F 75% 29.89 in 10.0 mi South 12.7 mph - N/A   Clear
12:55 AM 65.1 °F 56.7 °F 74% 29.88 in 10.0 mi South 13.8 mph 18.4 mph N/A   Clear
1:15 AM 64.8 °F 56.5 °F 74% 29.85 in 10.0 mi SSE 12.7 mph - N/A   Clear
1:35 AM 64.6 °F 56.3 °F 74% 29.85 in 10.0 mi South 9.2 mph - N/A   Scattered Clouds
1:55 AM 63.9 °F 56.5 °F 77% 29.85 in 10.0 mi South 12.7 mph - N/A   Clear
2:15 AM 63.9 °F 56.3 °F 76% 29.83 in 10.0 mi SSE 15.0 mph - N/A   Scattered Clouds
2:35 AM 64.4 °F 55.8 °F 73% 29.82 in 10.0 mi South 15.0 mph 23.0 mph N/A   Scattered Clouds
2:55 AM 63.7 °F 55.8 °F 75% 29.83 in 10.0 mi South 12.7 mph 18.4 mph N/A   Clear
3:15 AM 63.1 °F 55.6 °F 76% 29.82 in 10.0 mi SSE 15.0 mph - N/A   Clear
3:35 AM 62.8 °F 55.4 °F 77% 29.81 in 10.0 mi South 13.8 mph - N/A   Clear
3:55 AM 62.6 °F 55.0 °F 76% 29.81 in 10.0 mi South 13.8 mph 19.6 mph N/A   Clear
4:15 AM 62.6 °F 54.9 °F 76% 29.80 in 10.0 mi South 13.8 mph - N/A   Mostly Cloudy
4:35 AM 62.4 °F 54.1 °F 74% 29.79 in 10.0 mi South 13.8 mph - N/A   Scattered Clouds
4:55 AM 62.2 °F 54.1 °F 75% 29.80 in 10.0 mi South 12.7 mph - N/A   Mostly Cloudy
5:15 AM 62.8 °F 54.1 °F 73% 29.80 in 10.0 mi South 11.5 mph 16.1 mph N/A   Overcast
5:35 AM 63.7 °F 53.8 °F 70% 29.80 in 10.0 mi South 13.8 mph 19.6 mph N/A   Overcast
5:55 AM 63.5 °F 54.0 °F 71% 29.79 in 10.0 mi South 15.0 mph - N/A   Overcast
6:15 AM 63.9 °F 53.8 °F 70% 29.80 in 10.0 mi South 16.1 mph 19.6 mph N/A   Mostly Cloudy
6:35 AM 63.7 °F 53.6 °F 70% 29.80 in 10.0 mi South 13.8 mph 23.0 mph N/A   Scattered Clouds
6:55 AM 63.7 °F 53.6 °F 70% 29.79 in 10.0 mi South 18.4 mph 25.3 mph N/A   Clear
7:15 AM 63.7 °F 54.0 °F 71% 29.81 in 10.0 mi South 15.0 mph 19.6 mph N/A   Clear
7:35 AM 64.4 °F 54.3 °F 70% 29.81 in 10.0 mi South 15.0 mph - N/A   Clear
7:55 AM 65.1 °F 55.0 °F 70% 29.81 in 10.0 mi South 16.1 mph 23.0 mph N/A   Clear
8:15 AM 66.2 °F 55.8 °F 69% 29.81 in 10.0 mi South 18.4 mph 21.9 mph N/A   Clear
8:35 AM 66.4 °F 56.1 °F 69% 29.81 in 10.0 mi South 18.4 mph 21.9 mph N/A   Scattered Clouds
8:55 AM 67.3 °F 56.7 °F 69% 29.81 in 10.0 mi South 17.3 mph 25.3 mph N/A   Mostly Cloudy
9:15 AM 68.0 °F 57.0 °F 68% 29.82 in 10.0 mi South 18.4 mph 25.3 mph N/A   Overcast
9:35 AM 68.2 °F 57.2 °F 68% 29.83 in 10.0 mi SSW 15.0 mph 21.9 mph N/A   Mostly Cloudy
9:55 AM 68.9 °F 57.7 °F 68% 29.84 in 10.0 mi SSW 15.0 mph 20.7 mph N/A   Scattered Clouds
10:15 AM 68.9 °F 57.6 °F 67% 29.85 in 10.0 mi SSW 16.1 mph 21.9 mph N/A   Mostly Cloudy
10:35 AM 69.3 °F 58.1 °F 68% 29.85 in 10.0 mi SSW 18.4 mph 24.2 mph N/A   Scattered Clouds
10:55 AM 69.3 °F 58.1 °F 68% 29.87 in 10.0 mi SSW 15.0 mph 24.2 mph N/A   Scattered Clouds
11:15 AM 69.3 °F 58.5 °F 68% 29.86 in 10.0 mi SSW 15.0 mph 24.2 mph N/A   Scattered Clouds
11:35 AM 69.3 °F 59.0 °F 70% 29.85 in 10.0 mi South 11.5 mph 18.4 mph N/A   Scattered Clouds
11:55 AM 70.9 °F 59.9 °F 68% 29.85 in 10.0 mi South 9.2 mph - N/A   Clear
12:15 PM 72.7 °F 60.1 °F 64% 29.84 in 10.0 mi South 13.8 mph - N/A   Clear
12:35 PM 73.4 °F 60.3 °F 63% 29.85 in 10.0 mi South 19.6 mph 26.5 mph N/A   Clear
12:55 PM 73.8 °F 60.6 °F 63% 29.85 in 10.0 mi South 16.1 mph - N/A   Clear
1:15 PM 73.4 °F 60.1 °F 63% 29.85 in 10.0 mi South 19.6 mph 25.3 mph N/A   Scattered Clouds
1:35 PM 73.6 °F 60.6 °F 64% 29.85 in 10.0 mi South 17.3 mph 24.2 mph N/A   Clear
1:55 PM 74.3 °F 60.8 °F 63% 29.85 in 10.0 mi South 16.1 mph 21.9 mph N/A   Scattered Clouds
2:15 PM 76.1 °F 61.2 °F 60% 29.85 in 10.0 mi South 17.3 mph - N/A   Scattered Clouds
2:35 PM 74.8 °F 59.9 °F 60% 29.84 in 10.0 mi SSW 19.6 mph 23.0 mph N/A   Scattered Clouds
2:55 PM 74.5 °F 60.6 °F 62% 29.85 in 10.0 mi South 15.0 mph 21.9 mph N/A   Mostly Cloudy
3:15 PM 74.8 °F 60.3 °F 60% 29.85 in 10.0 mi South 16.1 mph 23.0 mph N/A   Mostly Cloudy
3:35 PM 74.5 °F 59.5 °F 60% 29.84 in 10.0 mi South 20.7 mph 25.3 mph N/A   Mostly Cloudy
3:55 PM 74.5 °F 59.2 °F 59% 29.84 in 10.0 mi SSW 17.3 mph 25.3 mph N/A   Scattered Clouds
4:15 PM 74.8 °F 59.4 °F 58% 29.84 in 10.0 mi South 18.4 mph 24.2 mph N/A   Scattered Clouds
4:35 PM 76.1 °F 59.4 °F 56% 29.83 in 10.0 mi South 15.0 mph - N/A   Scattered Clouds
4:55 PM 75.6 °F 59.0 °F 56% 29.84 in 10.0 mi South 17.3 mph - N/A   Scattered Clouds
5:15 PM 75.9 °F 59.2 °F 56% 29.84 in 10.0 mi South 12.7 mph 19.6 mph N/A   Scattered Clouds
5:35 PM 75.0 °F 58.8 °F 57% 29.85 in 10.0 mi South 16.1 mph 20.7 mph N/A   Clear
5:55 PM 74.8 °F 59.2 °F 58% 29.85 in 10.0 mi South 12.7 mph - N/A   Clear
6:15 PM 74.7 °F 58.8 °F 58% 29.85 in 10.0 mi South 11.5 mph 17.3 mph N/A   Clear
6:35 PM 74.5 °F 58.8 °F 58% 29.85 in 10.0 mi South 9.2 mph - N/A   Clear
6:55 PM 73.6 °F 57.9 °F 58% 29.85 in 10.0 mi SSE 10.4 mph - N/A   Clear
7:15 PM 72.1 °F 58.5 °F 62% 29.87 in 10.0 mi SSE 4.6 mph - N/A   Clear
7:35 PM 70.7 °F 58.6 °F 66% 29.86 in 10.0 mi SE 5.8 mph - N/A   Clear
7:55 PM 71.1 °F 58.3 °F 64% 29.88 in 10.0 mi SE 3.5 mph - N/A   Scattered Clouds
8:15 PM 70.9 °F 57.9 °F 63% 29.88 in 10.0 mi SE 4.6 mph - N/A   Mostly Cloudy
8:35 PM 71.4 °F 57.7 °F 62% 29.89 in 10.0 mi SSE 9.2 mph - N/A   Mostly Cloudy
8:55 PM 72.1 °F 57.7 °F 60% 29.91 in 10.0 mi South 11.5 mph 16.1 mph N/A   Overcast
9:15 PM 72.0 °F 57.6 °F 60% 29.90 in 10.0 mi South 15.0 mph 20.7 mph N/A   Overcast
9:35 PM 71.6 °F 57.7 °F 62% 29.92 in 10.0 mi South 10.4 mph - N/A   Overcast
9:55 PM 71.6 °F 57.9 °F 62% 29.92 in 10.0 mi South 11.5 mph 18.4 mph N/A   Mostly Cloudy
10:15 PM 70.5 °F 58.1 °F 65% 29.92 in 10.0 mi South 9.2 mph - N/A   Scattered Clouds
10:35 PM 70.0 °F 58.1 °F 66% 29.92 in 10.0 mi SSE 6.9 mph - N/A   Mostly Cloudy
10:55 PM 69.3 °F 58.1 °F 68% 29.92 in 10.0 mi SSE 6.9 mph - N/A   Overcast
11:15 PM 69.4 °F 58.3 °F 68% 29.92 in 10.0 mi SSE 5.8 mph - N/A   Overcast
11:35 PM 69.1 °F 58.3 °F 68% 29.92 in 10.0 mi SSE 6.9 mph - N/A   Overcast
11:55 PM 68.9 °F 58.3 °F 69% 29.92 in 10.0 mi SSE 6.9 mph - N/A   Overcast